Location: Roanoke
(37.2710°N, 79.9420°W)
Time: 03:16:01
(UTC-05:00)

Transit 2A - Pass Details

Date: 24 November 2019
Orbit: 602 x 957 km, 66.7° (Epoch: 07 December)

Event Time Altitude Azimuth Distance (km) Brightness Sun altitude
Rises 21:14:11 0° 315° (NW) 2,870 - -49.2°
Reaches altitude 10° 21:16:52 10° 298° (WNW) 1,986 - -49.8°
Maximum altitude 21:20:06 20° 251° (WSW) 1,476 - -50.4°
Drops below altitude 10° 21:23:28 10° 204° (SSW) 2,077 - -51.0°
Sets 21:26:21 0° 188° (S) 3,047 - -51.6°
